TimeAST,TemperatureF,Dew PointF,Humidity,Sea Level PressureIn,VisibilityMPH,Wind Direction,Wind SpeedMPH,Gust SpeedMPH,PrecipitationIn,Events,Conditions,WindDirDegrees,DateUTC
12:00 AM,44.6,41.0,87,29.85,6.0,ESE,27.6,-,N/A,,Partly Cloudy,120,2012-12-22 04:00:00
1:00 AM,46.4,42.8,87,29.83,6.0,ESE,25.3,-,N/A,,Partly Cloudy,120,2012-12-22 05:00:00
2:00 AM,46,42,81,29.80,5,ESE,25.3,,,,,120,2012-12-22 06:00:00
2:00 AM,46.4,42.8,87,29.80,5.0,ESE,26.5,-,N/A,,Scattered Clouds,120,2012-12-22 06:00:00
3:00 AM,46.4,42.8,87,29.78,5.0,ESE,23.0,-,N/A,,Scattered Clouds,120,2012-12-22 07:00:00
4:00 AM,48.2,42.8,82,29.74,5.0,ESE,24.2,-,N/A,,Scattered Clouds,120,2012-12-22 08:00:00
5:00 AM,49,44,76,29.70,5,SE,23.0,,,,,130,2012-12-22 09:00:00
5:00 AM,48.2,44.6,87,29.70,5.0,SE,21.9,28.8,N/A,,Scattered Clouds,130,2012-12-22 09:00:00
5:05 AM,48.2,44.6,87,29.69,5.0,SE,25.3,-,N/A,Rain,Light Rain,130,2012-12-22 09:05:00
6:00 AM,48.2,44.6,87,29.68,3.5,SE,27.6,-,N/A,Rain,Light Rain,130,2012-12-22 10:00:00
7:00 AM,50.0,44.6,82,29.64,4.0,SE,23.0,33.4,N/A,Rain,Light Rain,130,2012-12-22 11:00:00
7:08 AM,50.0,46.4,87,29.63,4.0,SE,26.5,-,N/A,,Mostly Cloudy,130,2012-12-22 11:08:00
7:26 AM,50.0,46.4,87,29.62,4.0,SE,27.6,33.4,N/A,Rain,Light Rain,130,2012-12-22 11:26:00
7:37 AM,50.0,46.4,87,29.62,3.5,SE,28.8,34.5,N/A,Rain,Light Rain,130,2012-12-22 11:37:00
7:47 AM,50.0,46.4,87,29.61,3.5,SE,28.8,35.7,N/A,Rain,Light Rain,130,2012-12-22 11:47:00
8:00 AM,50,46,81,29.60,3,SE,26.5,,,,Unknown Precipitation,130,2012-12-22 12:00:00
8:00 AM,50.0,46.4,87,29.60,3.5,SE,28.8,35.7,N/A,Rain,Light Rain,130,2012-12-22 12:00:00
8:14 AM,50.0,46.4,87,29.60,3.0,SE,32.2,38.0,N/A,Rain,Light Rain,130,2012-12-22 12:14:00
8:16 AM,50.0,46.4,87,29.60,3.0,SE,33.4,-,N/A,Rain,Light Rain,130,2012-12-22 12:16:00
8:28 AM,50.0,46.4,87,29.59,2.5,SE,29.9,39.1,N/A,Rain,Light Rain,130,2012-12-22 12:28:00
9:00 AM,50.0,46.4,87,29.58,2.5,SE,26.5,33.4,N/A,Rain,Light Rain,130,2012-12-22 13:00:00
9:02 AM,50.0,46.4,87,29.57,2.5,ESE,26.5,33.4,N/A,,Mostly Cloudy,120,2012-12-22 13:02:00
9:19 AM,50.0,46.4,87,29.57,2.5,SE,27.6,36.8,N/A,,Overcast,130,2012-12-22 13:19:00
9:26 AM,50.0,46.4,87,29.56,3.0,SE,27.6,36.8,N/A,,Mostly Cloudy,130,2012-12-22 13:26:00
9:37 AM,50.0,46.4,87,29.55,3.0,SE,28.8,39.1,N/A,,Overcast,130,2012-12-22 13:37:00
9:51 AM,50.0,46.4,87,29.55,3.0,SE,28.8,38.0,N/A,Rain,Light Rain,130,2012-12-22 13:51:00
10:00 AM,50.0,46.4,87,29.55,3.0,SE,28.8,35.7,N/A,Rain,Light Rain,130,2012-12-22 14:00:00
10:07 AM,51.8,48.2,88,29.55,3.0,SE,28.8,34.5,N/A,,Overcast,130,2012-12-22 14:07:00
10:22 AM,50.0,46.4,87,29.54,3.0,SE,28.8,35.7,N/A,Rain,Light Rain,130,2012-12-22 14:22:00
10:26 AM,50.0,46.4,87,29.54,2.5,SE,28.8,35.7,N/A,Rain,Light Rain,130,2012-12-22 14:26:00
11:00 AM,50,47,86,29.52,2,SE,31.1,,,Rain,Light Rain,130,2012-12-22 15:00:00
11:00 AM,50.0,46.4,87,29.52,2.1,SE,31.1,36.8,N/A,Rain,Light Rain,130,2012-12-22 15:00:00
11:06 AM,50.0,46.4,87,29.51,2.1,SE,31.1,38.0,N/A,Rain,Light Rain,130,2012-12-22 15:06:00
11:17 AM,50.0,46.4,87,29.47,1.4,ESE,28.8,38.0,N/A,Rain,Rain,120,2012-12-22 15:17:00
11:38 AM,50.0,48.2,94,29.47,2.0,SE,31.1,36.8,N/A,Rain,Light Rain,130,2012-12-22 15:38:00
11:49 AM,50.0,48.2,94,29.46,2.0,SE,29.9,42.6,N/A,,Unknown,130,2012-12-22 15:49:00
12:00 PM,50.0,48.2,94,29.45,2.0,SE,27.6,36.8,N/A,,Overcast,130,2012-12-22 16:00:00
12:08 PM,50.0,48.2,94,29.44,1.8,SE,28.8,34.5,N/A,,Light Drizzle,130,2012-12-22 16:08:00
12:09 PM,50.0,48.2,94,29.44,1.8,SE,27.6,35.7,N/A,,Overcast,130,2012-12-22 16:09:00
12:11 PM,50.0,48.2,94,29.44,1.8,SE,29.9,35.7,N/A,Rain,Light Rain,130,2012-12-22 16:11:00
12:23 PM,51.8,48.2,88,29.41,1.5,SE,31.1,40.3,N/A,Rain,Light Rain,130,2012-12-22 16:23:00
12:26 PM,51.8,48.2,88,29.41,1.4,SE,29.9,40.3,N/A,Rain,Light Rain,130,2012-12-22 16:26:00
12:31 PM,51.8,48.2,88,29.40,1.4,SE,32.2,40.3,N/A,Rain,Light Rain,130,2012-12-22 16:31:00
12:36 PM,51.8,48.2,88,29.40,1.4,SE,34.5,40.3,N/A,,Mostly Cloudy,130,2012-12-22 16:36:00
12:42 PM,51.8,50.0,94,29.40,2.0,SE,32.2,42.6,N/A,,Mostly Cloudy,130,2012-12-22 16:42:00
12:53 PM,51.8,50.0,94,29.40,2.0,SE,38.0,43.7,N/A,Rain,Light Rain,130,2012-12-22 16:53:00
1:00 PM,51.8,48.2,88,29.41,1.5,SE,34.5,44.9,N/A,Rain,Light Rain,140,2012-12-22 17:00:00
1:02 PM,51.8,50.0,94,29.40,1.4,SE,34.5,44.9,N/A,Rain,Light Rain,140,2012-12-22 17:02:00
1:09 PM,51.8,50.0,94,29.40,1.0,SE,29.9,41.4,N/A,Rain,Rain,140,2012-12-22 17:09:00
1:10 PM,51.8,50.0,94,29.40,1.0,SE,29.9,41.4,N/A,Rain,Rain,140,2012-12-22 17:10:00
1:13 PM,51.8,50.0,94,29.40,1.0,SE,28.8,39.1,N/A,Rain,Rain,140,2012-12-22 17:13:00
1:25 PM,51.8,50.0,94,29.38,1.0,SE,33.4,42.6,N/A,Rain,Heavy Rain,140,2012-12-22 17:25:00
1:43 PM,51.8,50.0,94,29.37,1.1,SE,33.4,40.3,N/A,Rain,Light Rain,140,2012-12-22 17:43:00
2:00 PM,53,51,90,29.37,1,SE,34.5,,,,Unknown Precipitation,140,2012-12-22 18:00:00
2:00 PM,53.6,51.8,94,29.37,1.4,SE,35.7,43.7,N/A,Rain,Light Rain,140,2012-12-22 18:00:00
2:02 PM,53.6,51.8,94,29.36,1.4,SE,33.4,43.7,N/A,,Unknown,140,2012-12-22 18:02:00
2:07 PM,51.8,51.8,100,29.41,1.1,South,32.2,43.7,N/A,,Unknown,190,2012-12-22 18:07:00
2:08 PM,53.6,51.8,94,29.41,1.0,South,29.9,43.7,N/A,,Unknown,190,2012-12-22 18:08:00
2:09 PM,51.8,51.8,100,29.41,0.6,South,28.8,43.7,N/A,,Unknown,190,2012-12-22 18:09:00
2:10 PM,53.6,51.8,94,29.41,0.5,South,27.6,41.4,N/A,,Unknown,190,2012-12-22 18:10:00
2:12 PM,53.6,51.8,94,29.40,0.4,South,26.5,41.4,N/A,,Unknown,180,2012-12-22 18:12:00
2:13 PM,53.6,51.8,94,29.40,0.2,South,24.2,41.4,N/A,Rain,Heavy Rain,190,2012-12-22 18:13:00
2:18 PM,51.8,51.8,100,29.40,0.2,South,21.9,32.2,N/A,Rain,Heavy Rain,170,2012-12-22 18:18:00
2:31 PM,53.6,51.8,94,29.42,0.4,South,25.3,34.5,N/A,Rain,Heavy Rain,180,2012-12-22 18:31:00
2:33 PM,53.6,51.8,94,29.41,0.4,South,23.0,33.4,N/A,Rain,Rain,180,2012-12-22 18:33:00
2:41 PM,51.8,50.0,94,29.40,0.6,South,19.6,31.1,N/A,Rain,Light Rain,170,2012-12-22 18:41:00
2:56 PM,50.0,50.0,100,29.38,0.6,SSE,16.1,-,N/A,Rain,Light Rain,150,2012-12-22 18:56:00
2:57 PM,50.0,50.0,100,29.38,0.6,SSE,16.1,-,N/A,Rain,Light Rain,150,2012-12-22 18:57:00
2:59 PM,50.0,50.0,100,29.38,0.6,SSE,15.0,-,N/A,,Unknown,160,2012-12-22 18:59:00
3:00 PM,50.0,50.0,100,29.38,0.6,SSE,15.0,-,N/A,,Unknown,160,2012-12-22 19:00:00
3:19 PM,50.0,50.0,100,29.39,0.6,SSE,16.1,-,N/A,,Overcast,160,2012-12-22 19:19:00
3:25 PM,50.0,48.2,94,29.40,0.6,SSE,16.1,-,N/A,Rain,Light Rain,150,2012-12-22 19:25:00
3:37 PM,50.0,48.2,94,29.38,0.5,SSE,12.7,-,N/A,Rain,Light Rain,160,2012-12-22 19:37:00
3:38 PM,50.0,48.2,94,29.39,0.4,SSE,11.5,17.3,N/A,Rain,Light Rain,160,2012-12-22 19:38:00
3:41 PM,50.0,48.2,94,29.40,0.4,South,15.0,-,N/A,Rain,Light Rain,180,2012-12-22 19:41:00
3:42 PM,50.0,50.0,100,29.40,0.4,SSW,16.1,-,N/A,Rain,Light Rain,200,2012-12-22 19:42:00
3:43 PM,50.0,50.0,100,29.40,0.4,SSW,17.3,-,N/A,Rain,Light Rain,210,2012-12-22 19:43:00
3:46 PM,50.0,50.0,100,29.41,0.4,SW,16.1,21.9,N/A,,Overcast,230,2012-12-22 19:46:00
3:47 PM,50.0,50.0,100,29.41,0.4,WSW,13.8,21.9,N/A,,Overcast,240,2012-12-22 19:47:00
3:50 PM,48.2,48.2,100,29.41,0.8,West,9.2,21.9,N/A,,Overcast,260,2012-12-22 19:50:00
3:53 PM,48.2,46.4,93,29.41,1.0,West,11.5,21.9,N/A,Rain,Light Rain,270,2012-12-22 19:53:00
3:55 PM,48.2,46.4,93,29.41,1.0,West,12.7,-,N/A,Rain,Light Rain,270,2012-12-22 19:55:00
3:59 PM,48.2,46.4,93,29.41,1.0,West,10.4,-,N/A,Rain,Light Rain,280,2012-12-22 19:59:00
4:00 PM,48.2,46.4,93,29.42,1.0,West,11.5,-,N/A,Rain,Light Rain,280,2012-12-22 20:00:00
4:07 PM,46.4,46.4,100,29.42,1.5,West,10.4,-,N/A,Rain,Light Rain,280,2012-12-22 20:07:00
4:08 PM,46.4,46.4,100,29.42,1.6,West,11.5,-,N/A,,Overcast,280,2012-12-22 20:08:00
4:12 PM,46.4,46.4,100,29.43,2.2,West,12.7,-,N/A,,Overcast,280,2012-12-22 20:12:00
4:15 PM,46.4,46.4,100,29.43,2.1,West,10.4,-,N/A,Rain,Light Rain,280,2012-12-22 20:15:00
4:36 PM,46.4,46.4,100,29.44,1.5,West,6.9,-,N/A,,Overcast,280,2012-12-22 20:36:00
4:44 PM,46.4,46.4,100,29.45,1.2,WSW,5.8,-,N/A,,Overcast,250,2012-12-22 20:44:00
4:47 PM,46.4,44.6,93,29.45,1.0,West,6.9,-,N/A,,Overcast,260,2012-12-22 20:47:00
4:50 PM,46.4,44.6,93,29.45,0.6,West,5.8,-,N/A,,Overcast,270,2012-12-22 20:50:00
5:00 PM,47,46,92,29.47,1,West,4.6,,,,Overcast,270,2012-12-22 21:00:00
5:00 PM,46.4,46.4,100,29.47,1.0,West,4.6,-,N/A,,Overcast,260,2012-12-22 21:00:00
5:08 PM,46.4,44.6,93,29.46,0.6,West,3.5,-,N/A,,Overcast,260,2012-12-22 21:08:00
5:33 PM,46.4,44.6,93,29.45,1.0,WNW,3.5,-,N/A,,Overcast,300,2012-12-22 21:33:00
5:42 PM,46.4,44.6,93,29.46,1.0,Calm,Calm,-,N/A,,Overcast,0,2012-12-22 21:42:00
5:44 PM,46.4,44.6,93,29.46,0.6,Calm,Calm,-,N/A,,Overcast,0,2012-12-22 21:44:00
6:00 PM,46.4,44.6,93,29.46,0.5,Calm,Calm,-,N/A,,Overcast,0,2012-12-22 22:00:00
8:00 PM,44,42,92,29.49,1,SSE,9.2,,,,,150,2012-12-23 00:00:00
8:00 PM,44.6,42.8,93,29.49,0.8,SSE,10.4,-,N/A,,Partly Cloudy,160,2012-12-23 00:00:00
9:00 PM,44.6,42.8,93,29.49,0.8,SSE,8.1,-,N/A,,Clear,160,2012-12-23 01:00:00
9:33 PM,44.6,42.8,93,29.48,0.6,SSE,5.8,-,N/A,,Partly Cloudy,160,2012-12-23 01:33:00
9:59 PM,44.6,42.8,93,29.49,1.0,South,6.9,-,N/A,,Scattered Clouds,170,2012-12-23 01:59:00
10:00 PM,44.6,42.8,93,29.49,1.0,South,5.8,-,N/A,,Scattered Clouds,170,2012-12-23 02:00:00
10:21 PM,44.6,42.8,93,29.49,0.6,South,5.8,-,N/A,,Mostly Cloudy,170,2012-12-23 02:21:00
10:56 PM,44.6,42.8,93,29.48,1.0,SSE,5.8,-,N/A,,Mostly Cloudy,160,2012-12-23 02:56:00
11:00 PM,45,43,92,29.49,1,SSE,5.8,,,,,160,2012-12-23 03:00:00
11:00 PM,44.6,42.8,93,29.49,0.8,SSE,5.8,-,N/A,,Mostly Cloudy,160,2012-12-23 03:00:00
11:02 PM,44.6,42.8,93,29.49,0.6,SSE,5.8,-,N/A,,Mostly Cloudy,160,2012-12-23 03:02:00
11:17 PM,44.6,42.8,93,29.48,1.0,SSE,8.1,-,N/A,,Overcast,160,2012-12-23 03:17:00
11:29 PM,44.6,42.8,93,29.48,1.1,SSE,9.2,-,N/A,,Overcast,150,2012-12-23 03:29:00
11:59 PM,44.6,42.8,93,29.47,1.0,SSE,6.9,-,N/A,,Overcast,160,2012-12-23 03:59:00